owner,sensor,date,latitude,longitude,vertical_datum,sea_water_temperature,qcFlag
ATP,ioos:station:wmo:42869:1,2020-01-01T00:06:00Z,26.6640,-91.5578,7.8,23.5,11111222
ATP,ioos:station:wmo:42869:1,2020-01-01T00:16:00Z,26.6640,-91.5578,7.8,23.5,11111222
ATP,ioos:station:wmo:42869:1,2020-01-01T00:26:00Z,26.6640,-91.5577,7.9,23.5,11111222
ATP,ioos:station:wmo:42869:1,2020-01-01T00:36:00Z,26.6639,-91.5578,8.0,23.5,11111222
ATP,ioos:station:wmo:42869:1,2020-01-01T00:46:00Z,26.6640,-91.5578,7.9,23.5,11111222
ATP,ioos:station:wmo:42869:1,2020-01-01T00:56:00Z,26.6640,-91.5579,8.0,23.5,11111222
ATP,ioos:station:wmo:42869:1,2020-01-01T01:06:00Z,26.6639,-91.5578,7.8,23.5,11111222
ATP,ioos:station:wmo:42869:1,2020-01-01T01:16:00Z,26.6641,-91.5572,7.9,23.5,11111222
ATP,ioos:station:wmo:42869:1,2020-01-01T01:26:00Z,26.6640,-91.5575,7.8,23.5,11111222
ATP,ioos:station:wmo:42869:1,2020-01-01T01:36:00Z,26.6641,-91.5573,7.6,23.5,11111222
ATP,ioos:station:wmo:42869:1,2020-01-01T01:46:00Z,26.6641,-91.5575,8.2,23.5,11111222
ATP,ioos:station:wmo:42869:1,2020-01-01T01:56:00Z,26.6641,-91.5576,8.0,23.5,11111222
ATP,ioos:station:wmo:42869:1,2020-01-01T02:06:00Z,26.6640,-91.5575,7.7,23.5,11111222
ATP,ioos:station:wmo:42869:1,2020-01-01T02:16:00Z,26.6640,-91.5577,8.1,23.5,11111222
ATP,ioos:station:wmo:42869:1,2020-01-01T02:26:00Z,26.6641,-91.5577,7.8,23.5,11111222
ATP,ioos:station:wmo:42869:1,2020-01-01T02:36:00Z,26.6641,-91.5577,7.7,23.5,11111222
ATP,ioos:station:wmo:42869:1,2020-01-01T02:46:00Z,26.6640,-91.5576,8.1,23.5,11111222
ATP,ioos:station:wmo:42869:1,2020-01-01T02:56:00Z,26.6640,-91.5573,7.9,23.5,11111222
ATP,ioos:station:wmo:42869:1,2020-01-01T03:06:00Z,26.6640,-91.5574,7.9,23.5,11111222
ATP,ioos:station:wmo:42869:1,2020-01-01T03:16:00Z,26.6640,-91.5574,8.0,23.5,11111222
ATP,ioos:station:wmo:42869:1,2020-01-01T03:26:00Z,26.6639,-91.5574,8.0,23.5,11111222
ATP,ioos:station:wmo:42869:1,2020-01-01T03:36:00Z,26.6640,-91.5575,7.8,23.5,11111222
ATP,ioos:station:wmo:42869:1,2020-01-01T03:46:00Z,26.6640,-91.5574,8.1,23.5,11111222
ATP,ioos:station:wmo:42869:1,2020-01-01T03:56:00Z,26.6640,-91.5575,7.8,23.5,11111222
ATP,ioos:station:wmo:42869:1,2020-01-01T04:06:00Z,26.6640,-91.5575,7.7,23.5,11111222
ATP,ioos:station:wmo:42869:1,2020-01-01T04:16:00Z,26.6639,-91.5575,8.0,23.5,11111222
ATP,ioos:station:wmo:42869:1,2020-01-01T04:26:00Z,26.6640,-91.5575,7.7,23.5,11111222
ATP,ioos:station:wmo:42869:1,2020-01-01T04:36:00Z,26.6640,-91.5576,7.9,23.6,11111222
ATP,ioos:station:wmo:42869:1,2020-01-01T04:46:00Z,26.6641,-91.5576,7.7,23.6,11111222
ATP,ioos:station:wmo:42869:1,2020-01-01T04:56:00Z,26.6640,-91.5576,8.0,23.6,11111222
ATP,ioos:station:wmo:42869:1,2020-01-01T05:06:00Z,26.6642,-91.5580,8.0,23.6,11111222
ATP,ioos:station:wmo:42869:1,2020-01-01T05:16:00Z,26.6641,-91.5578,7.9,23.6,11111222
ATP,ioos:station:wmo:42869:1,2020-01-01T05:26:00Z,26.6641,-91.5580,7.9,23.6,11111222
ATP,ioos:station:wmo:42869:1,2020-01-01T05:36:00Z,26.6641,-91.5579,7.9,23.6,11111222
ATP,ioos:station:wmo:42869:1,2020-01-01T05:46:00Z,26.6643,-91.5582,8.0,23.6,11111222
ATP,ioos:station:wmo:42869:1,2020-01-01T05:56:00Z,26.6642,-91.5579,7.8,23.6,11111222
ATP,ioos:station:wmo:42869:1,2020-01-01T06:06:00Z,26.6641,-91.5578,7.9,23.6,11111222
ATP,ioos:station:wmo:42869:1,2020-01-01T06:16:00Z,26.6640,-91.5576,7.7,23.6,11111222
ATP,ioos:station:wmo:42869:1,2020-01-01T06:56:00Z,26.6640,-91.5576,8.0,23.6,11111222
ATP,ioos:station:wmo:42869:1,2020-01-01T07:06:00Z,26.6639,-91.5577,7.9,23.6,11111222
ATP,ioos:station:wmo:42869:1,2020-01-01T07:16:00Z,26.6639,-91.5579,7.8,23.6,11111222
ATP,ioos:station:wmo:42869:1,2020-01-01T07:26:00Z,26.6639,-91.5579,7.9,23.6,11111222
ATP,ioos:station:wmo:42869:1,2020-01-01T07:36:00Z,26.6640,-91.5578,8.1,23.6,11111222
ATP,ioos:station:wmo:42869:1,2020-01-01T07:46:00Z,26.6640,-91.5578,8.0,23.6,11111222
ATP,ioos:station:wmo:42869:1,2020-01-01T07:56:00Z,26.6640,-91.5578,8.1,23.6,11111222
ATP,ioos:station:wmo:42869:1,2020-01-01T08:06:00Z,26.6640,-91.5577,7.9,23.6,11111222
ATP,ioos:station:wmo:42869:1,2020-01-01T08:16:00Z,26.6641,-91.5576,7.8,23.6,11111222
ATP,ioos:station:wmo:42869:1,2020-01-01T08:26:00Z,26.6640,-91.5575,7.8,23.6,11111222
ATP,ioos:station:wmo:42869:1,2020-01-01T08:36:00Z,26.6639,-91.5576,7.7,23.6,11111222
ATP,ioos:station:wmo:42869:1,2020-01-01T08:46:00Z,26.6640,-91.5576,7.9,23.6,11111222
ATP,ioos:station:wmo:42869:1,2020-01-01T08:56:00Z,26.6643,-91.5580,7.7,23.6,11111222
ATP,ioos:station:wmo:42869:1,2020-01-01T09:06:00Z,26.6642,-91.5577,7.8,23.6,11111222
ATP,ioos:station:wmo:42869:1,2020-01-01T09:16:00Z,26.6640,-91.5577,7.9,23.6,11111222
ATP,ioos:station:wmo:42869:1,2020-01-01T09:26:00Z,26.6640,-91.5577,8.0,23.6,11111222
ATP,ioos:station:wmo:42869:1,2020-01-01T09:36:00Z,26.6640,-91.5574,7.7,23.6,11111222
ATP,ioos:station:wmo:42869:1,2020-01-01T09:46:00Z,26.6640,-91.5574,7.9,23.6,11111222
ATP,ioos:station:wmo:42869:1,2020-01-01T09:56:00Z,26.6641,-91.5574,7.6,23.6,11111222
ATP,ioos:station:wmo:42869:1,2020-01-01T10:06:00Z,26.6640,-91.5574,7.9,23.6,11111222
ATP,ioos:station:wmo:42869:1,2020-01-01T10:16:00Z,26.6639,-91.5576,7.9,23.6,11111222
ATP,ioos:station:wmo:42869:1,2020-01-01T10:26:00Z,26.6640,-91.5576,7.8,23.6,11111222
ATP,ioos:station:wmo:42869:1,2020-01-01T10:36:00Z,26.6640,-91.5575,7.8,23.6,11111222
ATP,ioos:station:wmo:42869:1,2020-01-01T10:46:00Z,26.6640,-91.5576,7.9,23.6,11111222
ATP,ioos:station:wmo:42869:1,2020-01-01T10:56:00Z,26.6639,-91.5576,8.0,23.6,11111222
ATP,ioos:station:wmo:42869:1,2020-01-01T11:06:00Z,26.6628,-91.5587,7.7,23.6,11111222
ATP,ioos:station:wmo:42869:1,2020-01-01T11:16:00Z,26.6634,-91.5581,7.9,23.6,11111222
ATP,ioos:station:wmo:42869:1,2020-01-01T11:26:00Z,26.6640,-91.5577,7.9,23.6,11111222
ATP,ioos:station:wmo:42869:1,2020-01-01T11:36:00Z,26.6640,-91.5577,7.9,23.6,11111222
ATP,ioos:station:wmo:42869:1,2020-01-01T11:46:00Z,26.6640,-91.5575,7.8,23.6,11111222
ATP,ioos:station:wmo:42869:1,2020-01-01T11:56:00Z,26.6640,-91.5576,8.0,23.6,11111222
ATP,ioos:station:wmo:42869:1,2020-01-01T12:06:00Z,26.6640,-91.5576,7.8,23.6,11111222
ATP,ioos:station:wmo:42869:1,2020-01-01T12:16:00Z,26.6640,-91.5576,7.9,23.6,11111222
ATP,ioos:station:wmo:42869:1,2020-01-01T12:26:00Z,26.6640,-91.5575,7.9,23.6,11111222
ATP,ioos:station:wmo:42869:1,2020-01-01T12:36:00Z,26.6639,-91.5578,8.1,23.6,11111222
ATP,ioos:station:wmo:42869:1,2020-01-01T12:46:00Z,26.6639,-91.5578,7.7,23.6,11111222
ATP,ioos:station:wmo:42869:1,2020-01-01T12:56:00Z,26.6637,-91.5583,7.8,23.6,11111222
ATP,ioos:station:wmo:42869:1,2020-01-01T13:06:00Z,26.6640,-91.5574,7.8,23.6,11111222
ATP,ioos:station:wmo:42869:1,2020-01-01T13:16:00Z,26.6640,-91.5575,7.9,23.6,11111222
ATP,ioos:station:wmo:42869:1,2020-01-01T13:26:00Z,26.6640,-91.5574,7.8,23.6,11111222
ATP,ioos:station:wmo:42869:1,2020-01-01T13:36:00Z,26.6640,-91.5574,7.9,23.6,11111222
ATP,ioos:station:wmo:42869:1,2020-01-01T13:46:00Z,26.6639,-91.5576,7.9,23.6,11111222
ATP,ioos:station:wmo:42869:1,2020-01-01T13:56:00Z,26.6639,-91.5575,7.8,23.6,11111222
ATP,ioos:station:wmo:42869:1,2020-01-01T14:06:00Z,26.6640,-91.5575,7.9,23.6,11111222
ATP,ioos:station:wmo:42869:1,2020-01-01T14:16:00Z,26.6640,-91.5576,7.9,23.6,11111222
ATP,ioos:station:wmo:42869:1,2020-01-01T14:26:00Z,26.6639,-91.5576,7.7,23.6,11111222
ATP,ioos:station:wmo:42869:1,2020-01-01T14:36:00Z,26.6641,-91.5574,8.1,23.6,11111222
ATP,ioos:station:wmo:42869:1,2020-01-01T14:46:00Z,26.6642,-91.5577,8.0,23.6,11111222
ATP,ioos:station:wmo:42869:1,2020-01-01T14:56:00Z,26.6642,-91.5581,8.1,23.6,11111222
ATP,ioos:station:wmo:42869:1,2020-01-01T15:06:00Z,26.6642,-91.5574,8.0,23.6,11111222
ATP,ioos:station:wmo:42869:1,2020-01-01T15:16:00Z,26.6642,-91.5573,7.8,23.6,11111222
ATP,ioos:station:wmo:42869:1,2020-01-01T15:26:00Z,26.6640,-91.5574,8.0,23.6,11111222
ATP,ioos:station:wmo:42869:1,2020-01-01T15:36:00Z,26.6640,-91.5575,7.9,23.6,11111222
ATP,ioos:station:wmo:42869:1,2020-01-01T15:46:00Z,26.6641,-91.5574,7.6,23.6,11111222
ATP,ioos:station:wmo:42869:1,2020-01-01T15:56:00Z,26.6641,-91.5574,8.0,23.6,11111222
ATP,ioos:station:wmo:42869:1,2020-01-01T16:06:00Z,26.6640,-91.5575,7.9,23.6,11111222
ATP,ioos:station:wmo:42869:1,2020-01-01T16:16:00Z,26.6640,-91.5576,7.8,23.6,11111222
ATP,ioos:station:wmo:42869:1,2020-01-01T16:26:00Z,26.6638,-91.5575,7.8,23.6,11111222
ATP,ioos:station:wmo:42869:1,2020-01-01T16:36:00Z,26.6640,-91.5573,8.0,23.6,11111222
ATP,ioos:station:wmo:42869:1,2020-01-01T16:46:00Z,26.6640,-91.5578,7.9,23.6,11111222
ATP,ioos:station:wmo:42869:1,2020-01-01T16:56:00Z,26.6640,-91.5575,7.9,23.5,11111222
ATP,ioos:station:wmo:42869:1,2020-01-01T17:06:00Z,26.6640,-91.5574,7.8,23.5,11111222
ATP,ioos:station:wmo:42869:1,2020-01-01T17:16:00Z,26.6640,-91.5579,7.8,23.5,11111222
ATP,ioos:station:wmo:42869:1,2020-01-01T17:26:00Z,26.6639,-91.5573,7.9,23.5,11111222
ATP,ioos:station:wmo:42869:1,2020-01-01T17:36:00Z,26.6639,-91.5576,7.9,23.5,11111222
ATP,ioos:station:wmo:42869:1,2020-01-01T17:46:00Z,26.6640,-91.5575,7.9,23.5,11111222
ATP,ioos:station:wmo:42869:1,2020-01-01T17:56:00Z,26.6640,-91.5575,8.0,23.5,11111222
ATP,ioos:station:wmo:42869:1,2020-01-01T18:06:00Z,26.6640,-91.5575,7.9,23.5,11111222
ATP,ioos:station:wmo:42869:1,2020-01-01T18:16:00Z,26.6641,-91.5577,8.2,23.5,11111222
ATP,ioos:station:wmo:42869:1,2020-01-01T18:26:00Z,26.6641,-91.5577,7.9,23.5,11111222
ATP,ioos:station:wmo:42869:1,2020-01-01T18:36:00Z,26.6639,-91.5575,8.0,23.5,11111222
ATP,ioos:station:wmo:42869:1,2020-01-01T18:46:00Z,26.6641,-91.5575,7.9,23.5,11111222
ATP,ioos:station:wmo:42869:1,2020-01-01T19:27:00Z,26.6639,-91.5577,7.8,23.5,11111222
ATP,ioos:station:wmo:42869:1,2020-01-01T19:37:00Z,26.6639,-91.5577,7.9,23.5,11111222
ATP,ioos:station:wmo:42869:1,2020-01-01T20:47:00Z,26.6641,-91.5579,7.8,23.5,11111222
ATP,ioos:station:wmo:42869:1,2020-01-01T21:28:00Z,26.6640,-91.5575,7.8,23.5,11111222
ATP,ioos:station:wmo:42869:1,2020-01-01T22:09:00Z,26.6641,-91.5574,8.0,23.5,11111222
ATP,ioos:station:wmo:42869:1,2020-01-01T22:19:00Z,26.6639,-91.5576,7.8,23.5,11111222
ATP,ioos:station:wmo:42869:1,2020-01-01T23:00:00Z,26.6642,-91.5568,8.1,23.5,11111222
ATP,ioos:station:wmo:42869:1,2020-01-01T23:10:00Z,26.6639,-91.5579,7.9,23.5,11111222
ATP,ioos:station:wmo:42869:1,2020-01-01T23:20:00Z,26.6640,-91.5573,8.0,23.5,11111222
ATP,ioos:station:wmo:42869:1,2020-01-01T23:30:00Z,26.6640,-91.5574,8.0,23.5,11111222
ATP,ioos:station:wmo:42869:1,2020-01-02T00:10:00Z,26.6639,-91.5567,7.8,23.5,11111222
ATP,ioos:station:wmo:42869:1,2020-01-02T00:51:00Z,26.6641,-91.5573,7.8,23.5,11111222
ATP,ioos:station:wmo:42869:1,2020-01-02T02:32:00Z,26.6641,-91.5577,8.0,23.5,11111222
ATP,ioos:station:wmo:42869:1,2020-01-02T02:42:00Z,26.6641,-91.5575,7.8,23.5,11111222
ATP,ioos:station:wmo:42869:1,2020-01-02T02:52:00Z,26.6641,-91.5573,7.9,23.5,11111222
ATP,ioos:station:wmo:42869:1,2020-01-02T04:04:00Z,26.6640,-91.5574,7.9,23.5,11111222
ATP,ioos:station:wmo:42869:1,2020-01-02T04:14:00Z,26.6641,-91.5575,7.8,23.5,11111222
ATP,ioos:station:wmo:42869:1,2020-01-02T04:24:00Z,26.6640,-91.5575,7.8,23.5,11111222
ATP,ioos:station:wmo:42869:1,2020-01-02T04:34:00Z,26.6640,-91.5575,7.9,23.5,11111222
ATP,ioos:station:wmo:42869:1,2020-01-02T04:44:00Z,26.6640,-91.5573,7.6,23.5,11111222
ATP,ioos:station:wmo:42869:1,2020-01-02T05:25:00Z,26.6641,-91.5577,8.0,23.5,11111222
ATP,ioos:station:wmo:42869:1,2020-01-02T05:35:00Z,26.6641,-91.5575,8.1,23.5,11111222
ATP,ioos:station:wmo:42869:1,2020-01-02T05:45:00Z,26.6640,-91.5575,8.2,23.5,11111222
ATP,ioos:station:wmo:42869:1,2020-01-02T05:55:00Z,26.6642,-91.5578,7.8,23.5,11111222
ATP,ioos:station:wmo:42869:1,2020-01-02T06:05:00Z,26.6640,-91.5576,7.8,23.5,11111222
ATP,ioos:station:wmo:42869:1,2020-01-02T06:46:00Z,26.6641,-91.5573,7.9,23.5,11111222
ATP,ioos:station:wmo:42869:1,2020-01-02T07:26:00Z,26.6640,-91.5576,7.9,23.4,11111222
ATP,ioos:station:wmo:42869:1,2020-01-02T07:36:00Z,26.6640,-91.5575,8.0,23.4,11111222
ATP,ioos:station:wmo:42869:1,2020-01-02T07:46:00Z,26.6641,-91.5577,7.9,23.4,11111222
ATP,ioos:station:wmo:42869:1,2020-01-02T07:56:00Z,26.6640,-91.5575,8.0,23.4,11111222
ATP,ioos:station:wmo:42869:1,2020-01-02T08:06:00Z,26.6640,-91.5575,8.0,23.4,11111222
ATP,ioos:station:wmo:42869:1,2020-01-02T08:16:00Z,26.6640,-91.5574,7.9,23.4,11111222
ATP,ioos:station:wmo:42869:1,2020-01-02T08:26:00Z,26.6639,-91.5575,7.9,23.4,11111222
ATP,ioos:station:wmo:42869:1,2020-01-02T09:14:00Z,26.6640,-91.5576,8.0,23.4,11111222
ATP,ioos:station:wmo:42869:1,2020-01-02T09:54:00Z,26.6641,-91.5574,8.0,23.5,11111222
ATP,ioos:station:wmo:42869:1,2020-01-02T11:06:00Z,26.6640,-91.5571,7.8,23.4,11111222
ATP,ioos:station:wmo:42869:1,2020-01-02T11:16:00Z,26.6640,-91.5572,7.8,23.4,11111222
ATP,ioos:station:wmo:42869:1,2020-01-02T11:26:00Z,26.6641,-91.5574,7.9,23.4,11111222
ATP,ioos:station:wmo:42869:1,2020-01-02T11:36:00Z,26.6640,-91.5575,7.8,23.4,11111222
ATP,ioos:station:wmo:42869:1,2020-01-02T11:46:00Z,26.6640,-91.5575,7.9,23.4,11111222
ATP,ioos:station:wmo:42869:1,2020-01-02T11:56:00Z,26.6641,-91.5577,7.8,23.4,11111222
ATP,ioos:station:wmo:42869:1,2020-01-02T12:06:00Z,26.6641,-91.5576,7.8,23.4,11111222
ATP,ioos:station:wmo:42869:1,2020-01-02T12:16:00Z,26.6640,-91.5579,7.9,23.4,11111222
ATP,ioos:station:wmo:42869:1,2020-01-02T12:26:00Z,26.6640,-91.5575,8.0,23.4,11111222
ATP,ioos:station:wmo:42869:1,2020-01-02T12:36:00Z,26.6640,-91.5576,7.8,23.4,11111222
ATP,ioos:station:wmo:42869:1,2020-01-02T13:16:00Z,26.6639,-91.5576,8.1,23.4,11111222
ATP,ioos:station:wmo:42869:1,2020-01-02T13:37:00Z,26.6641,-91.5572,7.8,23.4,11111222
ATP,ioos:station:wmo:42869:1,2020-01-02T13:47:00Z,26.6640,-91.5574,7.8,23.4,11111222
ATP,ioos:station:wmo:42869:1,2020-01-02T14:28:00Z,26.6641,-91.5574,7.8,23.4,11111222
ATP,ioos:station:wmo:42869:1,2020-01-02T14:38:00Z,26.6642,-91.5576,7.8,23.4,11111222
ATP,ioos:station:wmo:42869:1,2020-01-02T14:48:00Z,26.6640,-91.5578,7.8,23.4,11111222
ATP,ioos:station:wmo:42869:1,2020-01-02T14:58:00Z,26.6641,-91.5574,7.8,23.4,11111222
ATP,ioos:station:wmo:42869:1,2020-01-02T15:39:00Z,26.6640,-91.5575,7.6,23.4,11111222
ATP,ioos:station:wmo:42869:1,2020-01-02T15:49:00Z,26.6640,-91.5576,7.7,23.4,11111222
ATP,ioos:station:wmo:42869:1,2020-01-02T16:30:00Z,26.6641,-91.5570,7.5,23.4,11111222
ATP,ioos:station:wmo:42869:1,2020-01-02T16:40:00Z,26.6639,-91.5578,7.7,23.4,11111222
ATP,ioos:station:wmo:42869:1,2020-01-02T16:50:00Z,26.6641,-91.5576,7.7,23.4,11111222
ATP,ioos:station:wmo:42869:1,2020-01-02T17:00:00Z,26.6642,-91.5590,7.5,23.4,11111222
ATP,ioos:station:wmo:42869:1,2020-01-02T17:45:00Z,26.6639,-91.5575,7.7,23.4,11111222
ATP,ioos:station:wmo:42869:1,2020-01-02T17:55:00Z,26.6640,-91.5574,7.7,23.4,11111222
ATP,ioos:station:wmo:42869:1,2020-01-02T18:05:00Z,26.6640,-91.5575,7.7,23.4,11111222
ATP,ioos:station:wmo:42869:1,2020-01-02T18:46:00Z,26.6640,-91.5575,7.7,23.5,11111222
ATP,ioos:station:wmo:42869:1,2020-01-02T18:56:00Z,26.6641,-91.5574,7.8,23.5,11111222
ATP,ioos:station:wmo:42869:1,2020-01-02T20:07:00Z,26.6639,-91.5578,7.8,23.4,11111222
ATP,ioos:station:wmo:42869:1,2020-01-02T20:47:00Z,26.6630,-91.5572,7.6,23.4,11111222
ATP,ioos:station:wmo:42869:1,2020-01-02T21:28:00Z,26.6630,-91.5571,7.7,23.4,11111222
ATP,ioos:station:wmo:42869:1,2020-01-02T21:38:00Z,26.6630,-91.5569,7.6,23.4,11111222
ATP,ioos:station:wmo:42869:1,2020-01-02T22:49:00Z,26.6631,-91.5571,7.7,23.4,11111222
ATP,ioos:station:wmo:42869:1,2020-01-02T23:30:00Z,26.6630,-91.5569,7.6,23.4,11111222
ATP,ioos:station:wmo:42869:1,2020-01-02T23:40:00Z,26.6630,-91.5570,7.6,23.4,11111222
ATP,ioos:station:wmo:42869:1,2020-01-02T23:50:00Z,26.6630,-91.5571,7.6,23.4,11111222
ATP,ioos:station:wmo:42869:1,2020-01-03T00:00:00Z,26.6630,-91.5572,7.7,23.4,11111222
ATP,ioos:station:wmo:42869:1,2020-01-03T00:10:00Z,26.6630,-91.5570,7.6,23.4,11111222
ATP,ioos:station:wmo:42869:1,2020-01-03T00:20:00Z,26.6630,-91.5573,7.6,23.4,11111222
ATP,ioos:station:wmo:42869:1,2020-01-03T01:00:00Z,26.6630,-91.5572,7.7,23.4,11111222
ATP,ioos:station:wmo:42869:1,2020-01-03T01:40:00Z,26.6630,-91.5572,7.7,23.4,11111222
ATP,ioos:station:wmo:42869:1,2020-01-03T02:21:00Z,26.6629,-91.5571,7.8,23.3,11111222
ATP,ioos:station:wmo:42869:1,2020-01-03T02:31:00Z,26.6630,-91.5573,8.1,23.3,11111222
ATP,ioos:station:wmo:42869:1,2020-01-03T02:41:00Z,26.6631,-91.5572,7.8,23.4,11111222
ATP,ioos:station:wmo:42869:1,2020-01-03T03:33:00Z,26.6630,-91.5571,7.8,23.3,11111222
ATP,ioos:station:wmo:42869:1,2020-01-03T03:43:00Z,26.6631,-91.5573,7.7,23.3,11111222
ATP,ioos:station:wmo:42869:1,2020-01-03T03:53:00Z,26.6631,-91.5573,8.0,23.3,11111222
ATP,ioos:station:wmo:42869:1,2020-01-03T04:03:00Z,26.6631,-91.5573,7.8,23.3,11111222
ATP,ioos:station:wmo:42869:1,2020-01-03T04:13:00Z,26.6630,-91.5570,7.9,23.4,11111222
ATP,ioos:station:wmo:42869:1,2020-01-03T04:23:00Z,26.6631,-91.5571,8.0,23.4,11111222
ATP,ioos:station:wmo:42869:1,2020-01-03T05:03:00Z,26.6630,-91.5571,7.8,23.3,11111222
ATP,ioos:station:wmo:42869:1,2020-01-03T05:13:00Z,26.6631,-91.5570,7.9,23.3,11111222
ATP,ioos:station:wmo:42869:1,2020-01-03T05:23:00Z,26.6630,-91.5569,7.8,23.3,11111222
ATP,ioos:station:wmo:42869:1,2020-01-03T05:33:00Z,26.6631,-91.5569,7.9,23.3,11111222
ATP,ioos:station:wmo:42869:1,2020-01-03T05:43:00Z,26.6631,-91.5569,7.9,23.3,11111222
ATP,ioos:station:wmo:42869:1,2020-01-03T05:53:00Z,26.6630,-91.5571,7.7,23.3,11111222
ATP,ioos:station:wmo:42869:1,2020-01-03T06:34:00Z,26.6629,-91.5571,7.9,23.3,11111222
ATP,ioos:station:wmo:42869:1,2020-01-03T07:14:00Z,26.6633,-91.5577,7.6,23.3,11111222
ATP,ioos:station:wmo:42869:1,2020-01-03T07:24:00Z,26.6630,-91.5572,7.8,23.3,11111222
ATP,ioos:station:wmo:42869:1,2020-01-03T07:34:00Z,26.6630,-91.5573,7.9,23.3,11111222
ATP,ioos:station:wmo:42869:1,2020-01-03T07:44:00Z,26.6631,-91.5578,7.8,23.3,11111222
ATP,ioos:station:wmo:42869:1,2020-01-03T07:54:00Z,26.6631,-91.5570,7.5,23.3,11111222
ATP,ioos:station:wmo:42869:1,2020-01-03T08:04:00Z,26.6631,-91.5573,7.7,23.4,11111222
ATP,ioos:station:wmo:42869:1,2020-01-03T08:45:00Z,26.6630,-91.5571,7.8,23.4,11111222
ATP,ioos:station:wmo:42869:1,2020-01-03T09:26:00Z,26.6630,-91.5571,7.6,23.4,11111222
ATP,ioos:station:wmo:42869:1,2020-01-03T09:36:00Z,26.6630,-91.5571,7.8,23.4,11111222
ATP,ioos:station:wmo:42869:1,2020-01-03T10:46:00Z,26.6630,-91.5571,7.9,23.4,11111222
ATP,ioos:station:wmo:42869:1,2020-01-03T10:56:00Z,26.6631,-91.5571,7.7,23.4,11111222
ATP,ioos:station:wmo:42869:1,2020-01-03T11:06:00Z,26.6631,-91.5571,7.8,23.4,11111222
ATP,ioos:station:wmo:42869:1,2020-01-03T11:16:00Z,26.6631,-91.5571,7.8,23.4,11111222
ATP,ioos:station:wmo:42869:1,2020-01-03T11:26:00Z,26.6630,-91.5570,7.9,23.4,11111222
ATP,ioos:station:wmo:42869:1,2020-01-03T11:36:00Z,26.6630,-91.5569,7.9,23.4,11111222
ATP,ioos:station:wmo:42869:1,2020-01-03T11:46:00Z,26.6629,-91.5567,7.9,23.4,11111222
ATP,ioos:station:wmo:42869:1,2020-01-03T11:56:00Z,26.6630,-91.5570,7.8,23.4,11111222
ATP,ioos:station:wmo:42869:1,2020-01-03T12:06:00Z,26.6630,-91.5571,7.8,23.4,11111222
ATP,ioos:station:wmo:42869:1,2020-01-03T13:02:00Z,26.6631,-91.5573,7.6,23.4,11111222
ATP,ioos:station:wmo:42869:1,2020-01-03T13:43:00Z,26.6631,-91.5571,7.6,23.4,11111222
ATP,ioos:station:wmo:42869:1,2020-01-03T13:53:00Z,26.6630,-91.5571,7.6,23.4,11111222
ATP,ioos:station:wmo:42869:1,2020-01-03T14:03:00Z,26.6630,-91.5572,7.6,23.4,11111222
ATP,ioos:station:wmo:42869:1,2020-01-03T14:45:00Z,26.6630,-91.5570,7.7,23.4,11111222
ATP,ioos:station:wmo:42869:1,2020-01-03T15:26:00Z,26.6630,-91.5571,7.8,23.4,11111222
ATP,ioos:station:wmo:42869:1,2020-01-03T15:36:00Z,26.6631,-91.5571,7.8,23.4,11111222
ATP,ioos:station:wmo:42869:1,2020-01-03T17:17:00Z,26.6630,-91.5570,7.7,23.4,11111222
ATP,ioos:station:wmo:42869:1,2020-01-03T17:27:00Z,26.6629,-91.5570,7.7,23.4,11111222
ATP,ioos:station:wmo:42869:1,2020-01-03T17:37:00Z,26.6630,-91.5571,8.0,23.4,11111222
ATP,ioos:station:wmo:42869:1,2020-01-03T17:47:00Z,26.6629,-91.5570,7.6,23.4,11111222
ATP,ioos:station:wmo:42869:1,2020-01-03T17:57:00Z,26.6630,-91.5572,7.8,23.4,11111222
ATP,ioos:station:wmo:42869:1,2020-01-03T18:07:00Z,26.6631,-91.5572,7.8,23.4,11111222
ATP,ioos:station:wmo:42869:1,2020-01-03T18:17:00Z,26.6630,-91.5572,7.6,23.4,11111222
ATP,ioos:station:wmo:42869:1,2020-01-03T18:27:00Z,26.6631,-91.5571,7.7,23.4,11111222
ATP,ioos:station:wmo:42869:1,2020-01-03T18:37:00Z,26.6631,-91.5572,7.6,23.4,11111222
ATP,ioos:station:wmo:42869:1,2020-01-03T18:47:00Z,26.6630,-91.5572,7.6,23.4,11111222
ATP,ioos:station:wmo:42869:1,2020-01-03T18:57:00Z,26.6630,-91.5573,7.8,23.4,11111222
ATP,ioos:station:wmo:42869:1,2020-01-03T19:07:00Z,26.6631,-91.5574,7.8,23.4,11111222
ATP,ioos:station:wmo:42869:1,2020-01-03T20:49:00Z,26.6640,-91.5577,7.6,23.5,11111222
ATP,ioos:station:wmo:42869:1,2020-01-03T21:30:00Z,26.6641,-91.5574,7.4,23.5,11111222
ATP,ioos:station:wmo:42869:1,2020-01-03T21:40:00Z,26.6640,-91.5576,7.6,23.5,11111222
ATP,ioos:station:wmo:42869:1,2020-01-03T21:50:00Z,26.6641,-91.5572,7.6,23.5,11111222
ATP,ioos:station:wmo:42869:1,2020-01-03T22:00:00Z,26.6641,-91.5571,7.8,23.5,11111222
ATP,ioos:station:wmo:42869:1,2020-01-03T22:10:00Z,26.6639,-91.5577,7.7,23.5,11111222
ATP,ioos:station:wmo:42869:1,2020-01-03T22:20:00Z,26.6639,-91.5577,7.6,23.5,11111222
ATP,ioos:station:wmo:42869:1,2020-01-03T22:30:00Z,26.6639,-91.5577,7.6,23.5,11111222
ATP,ioos:station:wmo:42869:1,2020-01-03T22:40:00Z,26.6638,-91.5580,7.6,23.5,11111222
ATP,ioos:station:wmo:42869:1,2020-01-03T22:50:00Z,26.6640,-91.5576,7.7,23.5,11111222
ATP,ioos:station:wmo:42869:1,2020-01-03T23:30:00Z,26.6640,-91.5575,7.7,23.5,11111222
ATP,ioos:station:wmo:42869:1,2020-01-03T23:40:00Z,26.6640,-91.5574,7.7,23.5,11111222
ATP,ioos:station:wmo:42869:1,2020-01-03T23:50:00Z,26.6640,-91.5571,7.8,23.4,11111222
ATP,ioos:station:wmo:42869:1,2020-01-04T00:00:00Z,26.6641,-91.5573,7.5,23.4,11111222
ATP,ioos:station:wmo:42869:1,2020-01-04T00:10:00Z,26.6641,-91.5575,7.6,23.4,11111222
ATP,ioos:station:wmo:42869:1,2020-01-04T00:20:00Z,26.6640,-91.5575,7.8,23.4,11111222
ATP,ioos:station:wmo:42869:1,2020-01-04T00:30:00Z,26.6640,-91.5575,7.7,23.4,11111222
ATP,ioos:station:wmo:42869:1,2020-01-04T01:10:00Z,26.6641,-91.5569,7.6,23.4,11111222
ATP,ioos:station:wmo:42869:1,2020-01-04T01:20:00Z,26.6640,-91.5574,7.7,23.4,11111222
ATP,ioos:station:wmo:42869:1,2020-01-04T01:30:00Z,26.6641,-91.5575,7.6,23.4,11111222
ATP,ioos:station:wmo:42869:1,2020-01-04T01:40:00Z,26.6640,-91.5575,7.5,23.4,11111222
ATP,ioos:station:wmo:42869:1,2020-01-04T01:50:00Z,26.6641,-91.5574,7.6,23.4,11111222
ATP,ioos:station:wmo:42869:1,2020-01-04T02:00:00Z,26.6641,-91.5574,7.9,23.4,11111222
ATP,ioos:station:wmo:42869:1,2020-01-04T02:10:00Z,26.6640,-91.5573,7.9,23.4,11111222
ATP,ioos:station:wmo:42869:1,2020-01-04T02:20:00Z,26.6640,-91.5562,7.8,23.4,11111222
ATP,ioos:station:wmo:42869:1,2020-01-04T02:30:00Z,26.6642,-91.5576,7.7,23.4,11111222
ATP,ioos:station:wmo:42869:1,2020-01-04T03:11:00Z,26.6640,-91.5575,7.7,23.5,11111222
ATP,ioos:station:wmo:42869:1,2020-01-04T03:21:00Z,26.6640,-91.5576,7.5,23.5,11111222
ATP,ioos:station:wmo:42869:1,2020-01-04T04:01:00Z,26.6640,-91.5575,7.8,23.5,11111222
ATP,ioos:station:wmo:42869:1,2020-01-04T04:11:00Z,26.6639,-91.5576,7.8,23.5,11111222
ATP,ioos:station:wmo:42869:1,2020-01-04T04:21:00Z,26.6641,-91.5574,7.8,23.5,11111222
ATP,ioos:station:wmo:42869:1,2020-01-04T04:31:00Z,26.6639,-91.5576,7.8,23.5,11111222
ATP,ioos:station:wmo:42869:1,2020-01-04T05:11:00Z,26.6640,-91.5575,7.9,23.5,11111222
ATP,ioos:station:wmo:42869:1,2020-01-04T05:21:00Z,26.6641,-91.5579,7.8,23.5,11111222
ATP,ioos:station:wmo:42869:1,2020-01-04T05:31:00Z,26.6640,-91.5578,8.1,23.5,11111222
ATP,ioos:station:wmo:42869:1,2020-01-04T05:41:00Z,26.6640,-91.5578,7.7,23.5,11111222
ATP,ioos:station:wmo:42869:1,2020-01-04T06:09:00Z,26.6639,-91.5576,7.9,23.5,11111222
ATP,ioos:station:wmo:42869:1,2020-01-04T06:19:00Z,26.6640,-91.5575,7.7,23.5,11111222
ATP,ioos:station:wmo:42869:1,2020-01-04T06:29:00Z,26.6640,-91.5576,7.8,23.5,11111222